カタログに戻る

CZ-6A DEB

運用中PO
NORAD 60861·DEBRIS·🇨🇳 China

打ち上げ Aug 6, 2024 から Taiyuan Satellite Launch Center

Loading…

次のパス (今後24時間)

TLE

最新Source: Space-Track

元期: Sep 14, 2026, 10:32 UTC

1 60861U 24140JQ  26257.43924466  .00076033  00000-0  18855-2 0  9990
2 60861  89.0538 260.2483 0052084 102.0023 258.7078 15.38673555113918

AllMySatでCZ-6A DEBをリアルタイム追跡

Download on the App Store